De Kooy, Netherlands

12:56 AM CET on December 10, 2018 (GMT +0100)
De Kooy Navy

Weather History for EHKD - December, 2018

Change the Weather History Date:

Friday, December 7, 2018

  Actual Average Record
Temperature  
Mean Temperature 48 °F -  
Max Temperature 51 °F 42 °F 54 °F (2015)
Min Temperature 44 °F 35 °F 23 °F (2010)
Degree Days  
Heating Degree Days 18    
Moisture  
Dew Point 48 °F    
Average Humidity 92    
Maximum Humidity 100    
Minimum Humidity 60    
Precipitation  
Precipitation 0.31 in 0.10 in - ()
Sea Level Pressure  
Sea Level Pressure 29.54 in    
Wind  
Wind Speed 20 mph ()    
Max Wind Speed 34 mph    
Max Gust Speed 44 mph    
Visibility 3.7 miles    
Events Rain    
Averages and records for this station are not official NWS values.
T = Trace of Precipitation, MM = Missing Value Source: Averaged Metar Reports

Daily Weather History Graph

Daily Weather History Graph

Search for Another Location

Airport or City:

Astronomy

Dec. 07, 2018 Rise Set
Actual Time 8:38 AM CET 4:25 PM CET
Civil Twilight 7:57 AM CET 5:06 PM CET
Nautical Twilight 7:13 AM CET 5:51 PM CET
Astronomical Twilight 6:31 AM CET 6:33 PM CET
Moon 8:24 AM CET (12/7) 4:55 PM CET (12/7)
Length of Visible Light 9h 09m
Length of Day
7h 46m
New Moon, 0% of the Moon is Illuminated
Dec 7
New Moon
Dec 15
First Quarter
Dec 22
Full
Dec 29
Last Quarter
Jan 6
New

Hourly Weather History & Observations

Time (CET) Temp. Windchill Dew Point Humidity Pressure Visibility Wind Dir Wind Speed Gust Speed Precip Events Conditions
12:01 AM 51.8 °F - 51.8 °F 100% 29.83 in - WSW 19.6 mph 32.2 mph N/A   Drizzle
12:14 AM 51.8 °F - 51.8 °F 100% 29.83 in - WSW 16.1 mph - N/A   Overcast
12:18 AM 51.8 °F - 51.8 °F 100% 29.83 in - WSW 16.1 mph - N/A   Overcast
12:25 AM 51.8 °F - 51.8 °F 100% 29.83 in - WSW 15.0 mph - N/A   Overcast
12:35 AM 51.8 °F - 51.8 °F 100% 29.83 in 3.1 mi SW 17.3 mph - N/A   Overcast
12:55 AM 51.8 °F - 51.8 °F 100% 29.80 in 3.1 mi SW 18.4 mph - N/A   Overcast
12:57 AM 51.8 °F - 51.8 °F 100% 29.80 in - SW 18.4 mph - N/A   Overcast
1:00 AM 52 °F - 51 °F 97% 29.82 in 2 mi SW 17.9 mph - - Rain Rain
1:04 AM 51.8 °F - 51.8 °F 100% 29.80 in - SW 18.4 mph - N/A   Overcast
1:10 AM 51.8 °F - 51.8 °F 100% 29.80 in 1.8 mi SW 17.3 mph - N/A   Overcast
1:14 AM 51.8 °F - 51.8 °F 100% 29.80 in 1.7 mi SW 17.3 mph - N/A   Overcast
1:25 AM 51.8 °F - 51.8 °F 100% 29.80 in 1.5 mi SW 18.4 mph - N/A   Overcast
1:55 AM 51.8 °F - 51.8 °F 100% 29.80 in 1.4 mi SW 17.3 mph - N/A   Overcast
2:00 AM 52 °F - 51 °F 97% 29.80 in 1 mi SW 17.9 mph - -   Mist
2:25 AM 51.8 °F - 51.8 °F 100% 29.77 in 1.4 mi SW 18.4 mph - N/A   Drizzle
2:55 AM 51.8 °F - 51.8 °F 100% 29.77 in 1.4 mi SW 17.3 mph - N/A   Heavy Drizzle
3:25 AM 51.8 °F - 51.8 °F 100% 29.77 in 1.4 mi SW 16.1 mph - N/A   Heavy Drizzle
3:55 AM 51.8 °F - 51.8 °F 100% 29.74 in 1.4 mi SW 16.1 mph - N/A   Heavy Drizzle
4:00 AM 52 °F - 52 °F 98% 29.76 in 1 mi SW 17.9 mph - - Rain Light Rain
4:25 AM 51.8 °F - 51.8 °F 100% 29.74 in 1.6 mi SW 18.4 mph - N/A   Heavy Drizzle
4:55 AM 51.8 °F - 51.8 °F 100% 29.71 in 1.7 mi SSW 17.3 mph - N/A   Drizzle
5:00 AM 52 °F - 52 °F 99% 29.73 in 2 mi SSW 17.9 mph - - Rain Light Drizzle
5:25 AM 51.8 °F - 51.8 °F 100% 29.71 in 1.4 mi SSW 19.6 mph - N/A   Drizzle
5:34 AM 51.8 °F - 51.8 °F 100% 29.71 in 1.2 mi SSW 19.6 mph - N/A Rain Heavy Drizzle
5:38 AM 51.8 °F - 51.8 °F 100% 29.71 in 1.2 mi SSW 19.6 mph - N/A Rain Light Rain
5:55 AM 51.8 °F - 51.8 °F 100% 29.68 in 1.5 mi SSW 19.6 mph - N/A Rain Light Rain
6:25 AM 51.8 °F - 51.8 °F 100% 29.68 in 1.5 mi SSW 20.7 mph - N/A Rain Light Rain
6:39 AM 51.8 °F - 51.8 °F 100% 29.65 in 1.6 mi SSW 18.4 mph - N/A Rain Light Rain
6:55 AM 51.8 °F - 51.8 °F 100% 29.65 in - SSW 18.4 mph - N/A Rain Light Rain Showers
7:00 AM 51 °F - 51 °F 100% 29.66 in 2 mi SSW 20.1 mph - - Rain Rain
7:25 AM 51.8 °F - 51.8 °F 100% 29.65 in 1.8 mi SSW 21.9 mph - N/A Rain Light Rain
7:36 AM 51.8 °F - 51.8 °F 100% 29.62 in 1.7 mi SSW 23.0 mph - N/A Rain Light Rain
7:40 AM 51.8 °F - 51.8 °F 100% 29.62 in 1.7 mi SSW 23.0 mph - N/A Rain Light Rain
7:49 AM 51.8 °F - 51.8 °F 100% 29.62 in 3.1 mi SSW 23.0 mph - N/A Rain Light Rain Showers
7:55 AM 51.8 °F - 51.8 °F 100% 29.62 in - SSW 23.0 mph - N/A Rain Light Rain Showers
8:00 AM 51 °F - 51 °F 100% 29.63 in 2 mi SSW 22.4 mph - - Rain Rain
8:25 AM 51.8 °F - 51.8 °F 100% 29.62 in 1.7 mi SSW 23.0 mph - N/A Rain Light Rain Showers
8:55 AM 51.8 °F - 51.8 °F 100% 29.59 in 1.5 mi SSW 24.2 mph - N/A   Heavy Drizzle
8:57 AM 51.8 °F - 51.8 °F 100% 29.59 in 1.5 mi SSW 24.2 mph - N/A   Drizzle
9:00 AM 51 °F - 51 °F 100% 29.60 in 2 mi SSW 24.6 mph - - Rain Light Rain
9:18 AM 51.8 °F - 51.8 °F 100% 29.56 in - SSW 25.3 mph - N/A   Overcast
9:25 AM 51.8 °F - 51.8 °F 100% 29.56 in - SSW 26.5 mph 39.1 mph N/A   Overcast
9:38 AM 51.8 °F - 51.8 °F 100% 29.56 in 2.8 mi SSW 26.5 mph - N/A   Overcast
9:55 AM 51.8 °F - 51.8 °F 100% 29.56 in - SSW 25.3 mph - N/A   Overcast
10:00 AM 51 °F - 51 °F 100% 29.57 in 3 mi SSW 26.8 mph - - Rain Rain
10:05 AM 51.8 °F - 51.8 °F 100% 29.56 in 3.1 mi SSW 27.6 mph 39.1 mph N/A   Overcast
10:25 AM 51.8 °F - 51.8 °F 100% 29.56 in - SSW 28.8 mph 40.3 mph N/A   Overcast
10:28 AM 51.8 °F - 51.8 °F 100% 29.56 in - SSW 27.6 mph 40.3 mph N/A   Overcast
10:44 AM 51.8 °F - 51.8 °F 100% 29.53 in 1.7 mi SSW 28.8 mph - N/A Rain Light Rain
10:48 AM 51.8 °F - 51.8 °F 100% 29.53 in 1.7 mi SSW 28.8 mph 41.4 mph N/A Rain Drizzle
10:55 AM 51.8 °F - 51.8 °F 100% 29.53 in 1.9 mi SSW 28.8 mph 41.4 mph N/A   Drizzle
11:25 AM 51.8 °F - 50.0 °F 94% 29.53 in 1.4 mi SSW 28.8 mph 41.4 mph N/A Rain Light Rain
11:55 AM 51.8 °F - 51.8 °F 100% 29.50 in 1.7 mi SSW 29.9 mph - N/A   Drizzle
12:00 PM 52 °F - 51 °F 95% 29.49 in 2 mi SSW 31.3 mph - - Rain Light Drizzle
12:25 PM 51.8 °F - 51.8 °F 100% 29.47 in 2.2 mi SSW 32.2 mph 43.7 mph N/A   Light Drizzle
12:55 PM 51.8 °F - 50.0 °F 94% 29.44 in - SSW 29.9 mph 41.4 mph N/A Rain Light Rain
1:00 PM 52 °F - 51 °F 94% 29.44 in 3 mi SSW 31.3 mph - - Rain Light Rain
1:07 PM 51.8 °F - 50.0 °F 94% 29.44 in 3.7 mi SSW 31.1 mph 43.7 mph N/A   Overcast
1:17 PM 51.8 °F - 50.0 °F 94% 29.42 in 3.7 mi SSW 33.4 mph - N/A   Mostly Cloudy
1:25 PM 51.8 °F - 50.0 °F 94% 29.42 in - SSW 33.4 mph - N/A Rain Light Rain
1:27 PM 51.8 °F - 50.0 °F 94% 29.42 in - SSW 33.4 mph - N/A   Heavy Drizzle
1:35 PM 51.8 °F - 50.0 °F 94% 29.42 in - SSW 33.4 mph - N/A Rain Rain
1:39 PM 51.8 °F - 50.0 °F 94% 29.42 in - SSW 33.4 mph - N/A   Drizzle
1:55 PM 51.8 °F - 51.8 °F 100% 29.39 in 1.9 mi SSW 31.1 mph 43.7 mph N/A   Drizzle
2:00 PM 52 °F - 51 °F 94% 29.39 in 2 mi SSW 33.6 mph - - Rain Light Rain Showers
2:14 PM 51.8 °F - 50.0 °F 94% 29.39 in 3.7 mi SSW 29.9 mph - N/A Rain Light Rain
2:18 PM 51.8 °F - 50.0 °F 94% 29.39 in 3.7 mi SSW 28.8 mph 40.3 mph N/A Rain Light Rain Showers
2:25 PM 51.8 °F - 50.0 °F 94% 29.36 in 3.7 mi SSW 28.8 mph - N/A Rain Light Rain
2:55 PM 51.8 °F - 50.0 °F 94% 29.36 in 3.7 mi SSW 27.6 mph 42.6 mph N/A Rain Light Rain
3:00 PM 51 °F - 50 °F 96% 29.35 in 4 mi SSW 31.3 mph - - Rain Rain
3:01 PM 51.8 °F - 50.0 °F 94% 29.36 in 3.7 mi SSW 29.9 mph 41.4 mph N/A Rain Light Rain
3:09 PM 51.8 °F - 50.0 °F 94% 29.33 in 3.7 mi SSW 31.1 mph - N/A Rain Light Rain
3:15 PM 51.8 °F - 50.0 °F 94% 29.33 in 5.0 mi SSW 29.9 mph 41.4 mph N/A Rain Light Rain Showers
3:25 PM 51.8 °F - 50.0 °F 94% 29.33 in 3.7 mi SSW 31.1 mph 42.6 mph N/A Rain Light Rain
3:34 PM 51.8 °F - 50.0 °F 94% 29.33 in 3.1 mi WSW 26.5 mph - N/A Rain Rain Showers
3:43 PM 46.4 °F 39.0 °F 44.6 °F 93% 29.36 in 4.3 mi West 19.6 mph - N/A Rain Light Rain Showers
3:55 PM 46.4 °F 39.8 °F 44.6 °F 93% 29.36 in 3.7 mi West 16.1 mph - N/A Rain Light Rain
4:00 PM 47 °F - 45 °F 89% 29.38 in 4 mi West 13.4 mph - - Rain Rain
4:03 PM 46.4 °F 40.4 °F 44.6 °F 93% 29.36 in 4.3 mi West 13.8 mph - N/A Rain Light Rain
4:06 PM 46.4 °F 40.4 °F 44.6 °F 93% 29.36 in 4.3 mi West 13.8 mph - N/A Rain Light Rain
4:10 PM 48.2 °F - 44.6 °F 87% 29.36 in 4.3 mi West 15.0 mph - N/A Rain Heavy Drizzle
4:14 PM 48.2 °F - 46.4 °F 93% 29.36 in 3.7 mi West 16.1 mph 27.6 mph N/A Rain Light Rain
4:18 PM 46.4 °F 39.5 °F 44.6 °F 93% 29.39 in 3.7 mi WNW 17.3 mph - N/A Rain Light Rain
4:24 PM 46.4 °F 39.2 °F 44.6 °F 93% 29.39 in 4.3 mi WNW 18.4 mph - N/A Rain Light Rain
4:25 PM 46.4 °F 39.2 °F 44.6 °F 93% 29.39 in 4.3 mi WNW 18.4 mph - N/A Rain Light Rain
4:27 PM 46.4 °F 39.2 °F 44.6 °F 93% 29.39 in 4.3 mi WNW 18.4 mph - N/A Rain Light Rain
4:39 PM 46.4 °F 38.7 °F 42.8 °F 87% 29.39 in 5.0 mi WNW 20.7 mph 33.4 mph N/A Rain Light Rain
4:55 PM 44.6 °F 36.4 °F 41.0 °F 87% 29.39 in 5.6 mi West 20.7 mph 32.2 mph N/A Rain Light Rain
5:00 PM 45 °F - 42 °F 84% 29.40 in 7 mi WNW 15.7 mph - - Rain Light Rain
5:25 PM 46.4 °F 41.1 °F 41.0 °F 81% 29.39 in 6.2 mi WNW 11.5 mph - N/A   Mostly Cloudy
5:55 PM 46.4 °F 41.9 °F 42.8 °F 87% 29.39 in 6.2 mi West 9.2 mph - N/A   Mostly Cloudy
6:00 PM 46 °F - 42 °F 80% 29.41 in 10 mi West 11.2 mph - - Rain Rain Showers
6:02 PM 46.4 °F 41.5 °F 42.8 °F 87% 29.39 in 6.2 mi West 10.4 mph - N/A   Mostly Cloudy
6:06 PM 46.4 °F 41.1 °F 42.8 °F 87% 29.39 in 6.2 mi West 11.5 mph - N/A   Mostly Cloudy
6:25 PM 48.2 °F - 39.2 °F 71% 29.42 in 6.2 mi West 16.1 mph 31.1 mph N/A   Mostly Cloudy
6:55 PM 48.2 °F - 41.0 °F 76% 29.42 in 6.2 mi West 18.4 mph - N/A   Overcast
7:00 PM 48 °F - 38 °F 60% 29.43 in 9 mi West 22.4 mph - -   Unknown Precipitation
7:25 PM 48.2 °F - 39.2 °F 71% 29.44 in 6.2 mi West 20.7 mph 32.2 mph N/A   Overcast
7:55 PM 48.2 °F - 41.0 °F 76% 29.44 in 6.2 mi West 23.0 mph - N/A Rain Light Rain
8:00 PM 48 °F - 40 °F 67% 29.47 in 9 mi West 22.4 mph - - Rain Rain
8:25 PM 48.2 °F - 39.2 °F 71% 29.44 in 6.2 mi West 24.2 mph - N/A   Partly Cloudy
8:37 PM 48.2 °F - 39.2 °F 71% 29.47 in 6.2 mi West 26.5 mph - N/A   Scattered Clouds
8:55 PM 48.2 °F - 39.2 °F 71% 29.47 in 6.2 mi West 27.6 mph - N/A   Scattered Clouds
9:00 PM 47 °F - 38 °F 61% 29.49 in 11 mi West 26.8 mph - - Rain Rain
9:25 PM 48.2 °F - 39.2 °F 71% 29.47 in 6.2 mi West 24.2 mph - N/A   Mostly Cloudy
9:55 PM 46.4 °F 38.1 °F 37.4 °F 71% 29.47 in 6.2 mi West 24.2 mph - N/A   Mostly Cloudy
10:25 PM 46.4 °F 37.9 °F 37.4 °F 71% 29.50 in 6.2 mi West 25.3 mph - N/A   Mostly Cloudy
10:55 PM 46.4 °F 37.9 °F 37.4 °F 71% 29.50 in 6.2 mi West 25.3 mph - N/A   Scattered Clouds
11:00 PM 47 °F - 37 °F 60% 29.52 in 12 mi West 24.6 mph - -   Partly Cloudy
11:25 PM 46.4 °F 37.9 °F 35.6 °F 66% 29.50 in 6.2 mi West 25.3 mph - N/A   Partly Cloudy
11:55 PM 46.4 °F 37.5 °F 37.4 °F 71% 29.50 in 6.2 mi West 27.6 mph - N/A   Mostly Cloudy